Radiation Dose measured at exhaust stack monitor of Fukushima Daiichi Nuclear Power Station
Date,Time,Unit 5 6 shared exhaust cylinders,Wind Direction,Wind Velocity(m/s)
2021/04/23,00:00,3.8,north,6.3
2021/04/23,00:10,4.1,north,6.5
2021/04/23,00:20,3.8,north,7.7
2021/04/23,00:30,4.0,north,6.0
2021/04/23,00:40,4.0,north,7.3
2021/04/23,00:50,3.9,north,8.5
2021/04/23,01:00,3.9,north,6.7
2021/04/23,01:10,3.8,north,6.5
2021/04/23,01:20,3.9,north,5.3
2021/04/23,01:30,3.9,north-northwest,4.2
2021/04/23,01:40,3.9,northwest,4.5
2021/04/23,01:50,4.0,northwest,4.9
2021/04/23,02:00,3.9,north-northwest,4.4
2021/04/23,02:10,3.9,northwest,5.2
2021/04/23,02:20,3.7,northwest,5.4
2021/04/23,02:30,4.0,northwest,5.3
2021/04/23,02:40,3.9,northwest,4.9
2021/04/23,02:50,3.9,northwest,5.7
2021/04/23,03:00,3.8,northwest,5.3
2021/04/23,03:10,3.9,northwest,5.1
2021/04/23,03:20,3.7,northwest,5.7
2021/04/23,03:30,3.8,northwest,5.4
2021/04/23,03:40,3.9,northwest,5.4
2021/04/23,03:50,4.0,northwest,5.3
2021/04/23,04:00,3.9,northwest,5.6
2021/04/23,04:10,3.9,northwest,5.3
2021/04/23,04:20,4.1,northwest,5.2
2021/04/23,04:30,4.0,northwest,5.2
2021/04/23,04:40,4.0,northwest,4.7
2021/04/23,04:50,3.8,northwest,4.8
2021/04/23,05:00,4.0,northwest,4.5
2021/04/23,05:10,3.7,northwest,5.5
2021/04/23,05:20,4.0,northwest,4.9
2021/04/23,05:30,3.9,northwest,5.4
2021/04/23,05:40,3.8,north-northwest,4.5
2021/04/23,05:50,3.9,northwest,5.1
2021/04/23,06:00,3.8,north-northwest,4.5
2021/04/23,06:10,3.9,northwest,4.3
2021/04/23,06:20,3.9,northwest,4.1
2021/04/23,06:30,3.9,northwest,4.5
2021/04/23,06:40,4.0,north-northwest,4.4
2021/04/23,06:50,4.0,north-northwest,4.3
2021/04/23,07:00,3.8,north-northwest,4.0
2021/04/23,07:10,3.7,north-northwest,3.7
2021/04/23,07:20,4.0,north,3.4
2021/04/23,07:30,3.9,north-northwest,4.2
2021/04/23,07:40,3.9,north-northwest,5.5
2021/04/23,07:50,4.0,north-northeast,5.4
2021/04/23,08:00,3.9,north-northeast,5.3
2021/04/23,08:10,4.0,north-northeast,5.1
2021/04/23,08:20,3.8,north-northeast,5.8
2021/04/23,08:30,3.9,north-northeast,6.4
2021/04/23,08:40,3.8,north-northeast,6.9
2021/04/23,08:50,3.8,north-northeast,7.7
2021/04/23,09:00,3.7,north-northeast,7.4
2021/04/23,09:10,4.0,north-northeast,7.5
2021/04/23,09:20,3.9,north-northeast,7.6
2021/04/23,09:30,4.0,north-northeast,8.3
2021/04/23,09:40,3.9,north-northeast,7.2
2021/04/23,09:50,4.0,north-northeast,7.7
2021/04/23,10:00,3.9,north-northeast,7.3
2021/04/23,10:10,3.9,north-northeast,8.3
2021/04/23,10:20,4.0,north-northeast,7.8
2021/04/23,10:30,3.8,north-northeast,7.0
2021/04/23,10:40,3.9,north-northeast,7.0
2021/04/23,10:50,3.8,north-northeast,6.7
2021/04/23,11:00,3.9,north-northeast,6.9
2021/04/23,11:10,3.9,north-northeast,6.2
2021/04/23,11:20,3.9,northeast,5.5
2021/04/23,11:30,3.8,northeast,4.6
2021/04/23,11:40,4.0,northeast,4.4
2021/04/23,11:50,3.8,northeast,5.0
2021/04/23,12:00,3.8,north-northeast,4.7
2021/04/23,12:10,4.0,north-northeast,5.1
2021/04/23,12:20,3.9,northeast,4.7
2021/04/23,12:30,3.6,north-northeast,4.9
2021/04/23,12:40,3.8,northeast,5.9
2021/04/23,12:50,3.9,northeast,5.5
2021/04/23,13:00,3.9,north-northeast,5.9
2021/04/23,13:10,3.9,northeast,5.7
2021/04/23,13:20,3.8,north-northeast,5.1
2021/04/23,13:30,3.9,north-northeast,5.1
2021/04/23,13:40,3.7,north-northeast,4.6
2021/04/23,13:50,3.9,northeast,4.5
2021/04/23,14:00,4.0,northeast,4.0
2021/04/23,14:10,3.9,northeast,3.6
2021/04/23,14:20,4.0,northeast,3.7
2021/04/23,14:30,3.8,northeast,3.6
2021/04/23,14:40,3.9,northeast,4.1
2021/04/23,14:50,3.8,east-northeast,4.0
2021/04/23,15:00,3.8,east-northeast,3.3
2021/04/23,15:10,4.0,north-northeast,2.7
2021/04/23,15:20,3.9,north,2.4
2021/04/23,15:30,3.8,north-northeast,2.1
2021/04/23,15:40,3.8,east-northeast,2.2
2021/04/23,15:50,3.8,east,2.5
2021/04/23,16:00,3.9,east-southeast,1.8
2021/04/23,16:10,4.0,east-southeast,2.5
2021/04/23,16:20,4.1,southeast,2.4
2021/04/23,16:30,3.9,east-northeast,2.5
2021/04/23,16:40,3.9,east-northeast,2.8
2021/04/23,16:50,3.9,east-northeast,2.6
2021/04/23,17:00,3.9,northeast,2.8
2021/04/23,17:10,3.8,northeast,3.1
2021/04/23,17:20,3.9,northeast,4.2
2021/04/23,17:30,3.9,north-northeast,3.7
2021/04/23,17:40,3.7,northeast,3.6
2021/04/23,17:50,3.8,northeast,3.7
2021/04/23,18:00,4.0,north-northeast,3.0
2021/04/23,18:10,3.8,north-northeast,2.9
2021/04/23,18:20,3.8,north-northeast,2.9
2021/04/23,18:30,3.9,north-northeast,2.9
2021/04/23,18:40,3.8,north-northeast,2.1
2021/04/23,18:50,3.9,north,3.2
2021/04/23,19:00,3.8,north,2.6
2021/04/23,19:10,3.8,north-northwest,3.2
2021/04/23,19:20,3.9,north-northwest,3.5
2021/04/23,19:30,3.9,north-northwest,3.7
2021/04/23,19:40,3.7,north-northwest,4.5
2021/04/23,19:50,3.9,northwest,3.4
2021/04/23,20:00,4.1,north-northwest,4.3
2021/04/23,20:10,3.9,northwest,4.2
2021/04/23,20:20,4.0,northwest,4.3
2021/04/23,20:30,3.9,northwest,4.7
2021/04/23,20:40,3.8,northwest,5.1
2021/04/23,20:50,3.8,northwest,4.6
2021/04/23,21:00,3.9,northwest,4.9
2021/04/23,21:10,3.9,northwest,4.6
2021/04/23,21:20,3.9,northwest,4.5
2021/04/23,21:30,3.9,northwest,4.9
2021/04/23,21:40,4.0,northwest,4.5
2021/04/23,21:50,4.0,northwest,5.5
2021/04/23,22:00,3.9,northwest,4.6
2021/04/23,22:10,3.9,northwest,5.0
2021/04/23,22:20,3.7,northwest,4.6
2021/04/23,22:30,3.7,northwest,4.6
2021/04/23,22:40,3.8,northwest,4.4
2021/04/23,22:50,3.8,northwest,3.8
2021/04/23,23:00,4.1,west-northwest,3.8
2021/04/23,23:10,3.8,west-northwest,3.6
2021/04/23,23:20,4.0,west-northwest,3.4
2021/04/23,23:30,3.8,west,2.9
2021/04/23,23:40,4.0,west,3.9
2021/04/23,23:50,3.8,west-northwest,3.0
